• In Moldova, Republic
  • List of Countries
  • For 7 days
  • Water Temperature
  • Satellite Maps
  • Weather Map
  • Weather Widgets
  • user-avatar
    Login

    Hourly Weather Batina

    Today, 23 May, Tuesday

    Time Temperature Precipitation Wind Pressure Humidity
    00:00 +19°C° 0 mm 1 mps 671 mmHg 56%
    01:00 +19°C° 0 mm 1 mps 671 mmHg 57%
    02:00 +19°C° 0 mm 1 mps 671 mmHg 57%
    03:00 +18°C° 0 mm 1 mps 671 mmHg 58%
    04:00 +19°C° 0.1 mm 1 mps 671 mmHg 54%
    05:00 +20°C° 0.1 mm 1 mps 672 mmHg 51%
    06:00 +22°C° 0.1 mm 1 mps 672 mmHg 47%
    07:00 +23°C° 0.3 mm 2 mps 673 mmHg 44%
    08:00 +24°C° 0.3 mm 2 mps 673 mmHg 40%
    09:00 +25°C° 0.3 mm 2 mps 674 mmHg 37%
    10:00 +25°C° 0.1 mm 3 mps 674 mmHg 37%
    11:00 +26°C° 0.1 mm 3 mps 674 mmHg 37%
    12:00 +26°C° 0.1 mm 3 mps 674 mmHg 37%
    13:00 +26°C° 0.1 mm 3 mps 674 mmHg 37%
    14:00 +26°C° 0.1 mm 3 mps 674 mmHg 37%
    15:00 +26°C° 0.1 mm 3 mps 673 mmHg 37%
    16:00 +25°C° 0.3 mm 3 mps 673 mmHg 41%
    17:00 +24°C° 0.3 mm 3 mps 673 mmHg 44%
    18:00 +24°C° 0.3 mm 2 mps 673 mmHg 48%
    19:00 +21°C° 0.2 mm 2 mps 673 mmHg 54%
    20:00 +21°C° 0.2 mm 1 mps 673 mmHg 61%
    21:00 +19°C° 0.2 mm 1 mps 673 mmHg 67%
    22:00 +19°C° 0.1 mm 1 mps 672 mmHg 70%
    23:00 +18°C° 0.1 mm 1 mps 672 mmHg 73%

    Tomorrow, 24 May, Wednesday

    Time Temperature Precipitation Wind Pressure Humidity
    00:00 +16°C° 0.1 mm 1 mps 672 mmHg 76%
    01:00 +16°C° 0 mm 1 mps 672 mmHg 77%
    02:00 +16°C° 0 mm 1 mps 671 mmHg 78%
    03:00 +15°C° 0 mm 1 mps 671 mmHg 79%
    04:00 +16°C° 0 mm 1 mps 672 mmHg 74%
    05:00 +18°C° 0 mm 1 mps 672 mmHg 68%
    06:00 +19°C° 0 mm 1 mps 672 mmHg 63%
    07:00 +21°C° 0 mm 1 mps 673 mmHg 55%
    08:00 +23°C° 0 mm 1 mps 674 mmHg 47%
    09:00 +25°C° 0 mm 1 mps 674 mmHg 39%
    10:00 +26°C° 0 mm 1 mps 674 mmHg 34%
    11:00 +28°C° 0 mm 2 mps 674 mmHg 30%
    12:00 +29°C° 0 mm 2 mps 674 mmHg 25%
    13:00 +29°C° 0 mm 2 mps 674 mmHg 24%
    14:00 +29°C° 0 mm 2 mps 674 mmHg 23%
    15:00 +29°C° 0 mm 2 mps 674 mmHg 22%
    16:00 +28°C° 0 mm 2 mps 673 mmHg 25%
    17:00 +27°C° 0 mm 2 mps 673 mmHg 28%
    18:00 +26°C° 0 mm 2 mps 673 mmHg 31%
    19:00 +24°C° 0 mm 2 mps 673 mmHg 37%
    20:00 +21°C° 0 mm 2 mps 673 mmHg 43%
    21:00 +21°C° 0 mm 1 mps 672 mmHg 49%
    22:00 +20°C° 0 mm 1 mps 672 mmHg 52%
    23:00 +19°C° 0 mm 1 mps 672 mmHg 54%

    Day after tomorrow, 25 May, Thursday

    Time Temperature Precipitation Wind Pressure Humidity
    00:00 +19°C° 0 mm 1 mps 672 mmHg 57%
    01:00 +18°C° 0 mm 1 mps 672 mmHg 58%
    02:00 +18°C° 0 mm 1 mps 671 mmHg 59%
    03:00 +18°C° 0 mm 1 mps 671 mmHg 60%
    04:00 +19°C° 0 mm 1 mps 672 mmHg 56%
    05:00 +20°C° 0 mm 1 mps 672 mmHg 52%
    06:00 +20°C° 0 mm 2 mps 673 mmHg 47%
    07:00 +23°C° 0 mm 2 mps 673 mmHg 42%
    08:00 +25°C° 0 mm 3 mps 674 mmHg 37%
    09:00 +27°C° 0 mm 4 mps 674 mmHg 32%
    10:00 +28°C° 0 mm 4 mps 674 mmHg 30%
    11:00 +30°C° 0 mm 4 mps 674 mmHg 27%
    12:00 +32°C° 0 mm 4 mps 674 mmHg 25%
    13:00 +32°C° 0 mm 4 mps 674 mmHg 25%
    14:00 +30°C° 0 mm 4 mps 673 mmHg 25%
    15:00 +30°C° 0 mm 4 mps 673 mmHg 25%
    16:00 +29°C° 0.1 mm 4 mps 673 mmHg 27%
    17:00 +28°C° 0.1 mm 3 mps 672 mmHg 30%
    18:00 +27°C° 0.1 mm 2 mps 672 mmHg 32%
    19:00 +25°C° 0.2 mm 2 mps 672 mmHg 38%
    20:00 +24°C° 0.2 mm 1 mps 672 mmHg 44%
    21:00 +22°C° 0.2 mm 1 mps 672 mmHg 50%
    22:00 +22°C° 0 mm 1 mps 672 mmHg 49%
    23:00 +22°C° 0 mm 1 mps 672 mmHg 49%

    26 May, Friday

    Time Temperature Precipitation Wind Pressure Humidity
    00:00 +22°C° 0 mm 1 mps 671 mmHg 48%
    01:00 +21°C° 0 mm 2 mps 671 mmHg 49%
    02:00 +21°C° 0 mm 2 mps 671 mmHg 50%
    03:00 +20°C° 0 mm 2 mps 671 mmHg 51%
    04:00 +21°C° 0 mm 2 mps 671 mmHg 49%
    05:00 +23°C° 0 mm 2 mps 671 mmHg 47%
    06:00 +24°C° 0 mm 2 mps 671 mmHg 45%
    07:00 +26°C° 0 mm 3 mps 672 mmHg 39%
    08:00 +28°C° 0 mm 3 mps 672 mmHg 33%
    09:00 +30°C° 0 mm 4 mps 673 mmHg 27%
    10:00 +32°C° 0 mm 4 mps 673 mmHg 25%
    11:00 +32°C° 0 mm 5 mps 673 mmHg 24%
    12:00 +33°C° 0 mm 5 mps 672 mmHg 22%
    13:00 +33°C° 0 mm 4 mps 672 mmHg 22%
    14:00 +33°C° 0 mm 4 mps 672 mmHg 22%
    15:00 +33°C° 0 mm 4 mps 671 mmHg 21%
    16:00 +31°C° 0 mm 3 mps 671 mmHg 24%
    17:00 +30°C° 0 mm 2 mps 671 mmHg 27%
    18:00 +29°C° 0 mm 2 mps 671 mmHg 30%
    19:00 +27°C° 0.2 mm 2 mps 671 mmHg 35%
    20:00 +25°C° 0.2 mm 2 mps 671 mmHg 41%
    21:00 +23°C° 0.2 mm 2 mps 671 mmHg 46%
    22:00 +23°C° 0.2 mm 2 mps 671 mmHg 48%
    23:00 +23°C° 0.2 mm 2 mps 670 mmHg 50%

    27 May, Saturday

    Time Temperature Precipitation Wind Pressure Humidity
    00:00 +21°C° 0.2 mm 2 mps 670 mmHg 51%
    01:00 +21°C° 0.2 mm 2 mps 670 mmHg 52%
    02:00 +21°C° 0.2 mm 2 mps 669 mmHg 53%
    03:00 +21°C° 0.2 mm 1 mps 669 mmHg 53%
    04:00 +21°C° 0.1 mm 2 mps 670 mmHg 49%
    05:00 +24°C° 0.1 mm 2 mps 670 mmHg 45%
    06:00 +25°C° 0.1 mm 2 mps 671 mmHg 41%
    07:00 +27°C° 0 mm 3 mps 671 mmHg 35%
    08:00 +29°C° 0 mm 4 mps 672 mmHg 28%
    09:00 +32°C° 0 mm 5 mps 673 mmHg 22%
    10:00 +33°C° 0 mm 6 mps 673 mmHg 20%
    11:00 +34°C° 0 mm 6 mps 673 mmHg 18%
    12:00 +35°C° 0 mm 6 mps 672 mmHg 17%
    13:00 +35°C° 0 mm 6 mps 672 mmHg 16%
    14:00 +35°C° 0 mm 5 mps 672 mmHg 16%
    15:00 +36°C° 0 mm 5 mps 672 mmHg 16%
    16:00 +34°C° 0 mm 4 mps 671 mmHg 19%
    17:00 +33°C° 0 mm 3 mps 671 mmHg 23%
    18:00 +30°C° 0 mm 3 mps 671 mmHg 26%
    19:00 +28°C° 0.3 mm 3 mps 671 mmHg 33%
    20:00 +26°C° 0.3 mm 3 mps 671 mmHg 39%
    21:00 +24°C° 0.3 mm 3 mps 671 mmHg 46%
    22:00 +24°C° 0.1 mm 3 mps 670 mmHg 45%
    23:00 +24°C° 0.1 mm 2 mps 670 mmHg 43%

    28 May, Sunday

    Time Temperature Precipitation Wind Pressure Humidity
    00:00 +24°C° 0.1 mm 2 mps 670 mmHg 42%
    01:00 +24°C° 0 mm 2 mps 670 mmHg 41%
    02:00 +23°C° 0 mm 2 mps 670 mmHg 40%
    03:00 +23°C° 0 mm 2 mps 669 mmHg 39%
    04:00 +24°C° 0 mm 2 mps 670 mmHg 37%
    05:00 +25°C° 0 mm 2 mps 671 mmHg 35%
    06:00 +26°C° 0 mm 2 mps 671 mmHg 33%
    07:00 +28°C° 0.1 mm 3 mps 672 mmHg 28%
    08:00 +30°C° 0.1 mm 4 mps 672 mmHg 24%
    09:00 +33°C° 0.1 mm 5 mps 673 mmHg 20%
    10:00 +34°C° 0 mm 5 mps 673 mmHg 18%
    11:00 +35°C° 0 mm 6 mps 673 mmHg 17%
    12:00 +36°C° 0 mm 6 mps 673 mmHg 15%
    13:00 +36°C° 0 mm 6 mps 673 mmHg 15%
    14:00 +36°C° 0 mm 5 mps 672 mmHg 15%
    15:00 +36°C° 0 mm 5 mps 672 mmHg 15%
    16:00 +35°C° 0 mm 4 mps 672 mmHg 18%
    17:00 +33°C° 0 mm 3 mps 672 mmHg 20%
    18:00 +31°C° 0 mm 2 mps 671 mmHg 23%
    19:00 +29°C° 0 mm 2 mps 671 mmHg 27%
    20:00 +27°C° 0 mm 2 mps 671 mmHg 31%
    21:00 +26°C° 0 mm 2 mps 671 mmHg 35%
    22:00 +25°C° 0 mm 2 mps 671 mmHg 37%
    23:00 +24°C° 0 mm 2 mps 671 mmHg 39%
    Show more